Location: Wavehorne
(51.0500°N, 0.8333°E)
Time: 20:54:51
(UTC+00:00)

NOSS 2-2 (C) - Pass Details

Date: 28 October 2021
Orbit: 450 x 1756 km, 63.3° (Epoch: 26 November)

Event Time Altitude Azimuth Distance (km) Brightness Sun altitude
Rises 18:21:55 0° 196° (SSW) 2,476 6.9 -16.9°
Reaches altitude 10° 18:24:08 10° 185° (S) 1,579 5.7 -17.2°
Enters shadow 18:26:14 25° 151° (SSE) 944 4.2 -17.5°
